Location: B?dimalle
(17.1788°N, 80.5377°E)
Time: 02:31:30
(UTC+00:00)

Courier 1B - All Passes

Search period start: 07 February 2026 00:00
Search period end: 17 February 2026 00:00
Orbit: 962 x 1208 km, 28.3° (Epoch: 6 February)

Date Brightness Start Highest point End Pass type
(mag) Time Alt. Az. Time Alt. Az. Time Alt. Az.
7 Feb - 00:20:52 10° WNW 00:28:02 88° NNE 00:34:46 10° ESE visible
7 Feb - 02:16:11 10° W 02:21:54 29° SSW 02:27:25 10° SSE daylight
7 Feb - 13:55:22 10° S 13:59:58 17° SSE 14:04:37 10° ESE visible
7 Feb - 15:46:32 10° SW 15:54:05 56° SSE 16:01:45 10° ENE visible
7 Feb - 17:40:50 10° W 17:48:36 62° NNW 17:56:16 10° ENE night (unlit)
7 Feb - 19:36:40 10° WNW 19:43:45 37° N 19:50:36 10° ENE night (unlit)
7 Feb - 21:32:12 10° WNW 21:39:10 38° N 21:45:46 10° ENE visible
7 Feb - 23:26:45 10° WNW 23:34:03 70° NNE 23:40:53 10° ESE visible
8 Feb - 01:21:37 10° W 01:28:05 41° SSW 01:34:15 10° SE daylight
8 Feb - 13:04:07 10° SSE 13:05:55 11° SSE 13:07:43 10° SE visible
8 Feb - 14:52:56 10° SW 15:00:02 42° SSE 15:07:19 10° E visible
8 Feb - 16:46:34 10° WSW 16:54:24 76° NNW 17:02:14 10° ENE visible
8 Feb - 18:42:06 10° WNW 18:49:24 40° N 18:56:31 10° ENE night (unlit)
8 Feb - 20:37:52 10° WNW 20:44:51 36° N 20:51:31 10° ENE visible
8 Feb - 22:32:36 10° WNW 22:39:57 57° NNE 22:46:51 10° E visible
9 Feb - 00:27:13 10° WNW 00:34:14 57° SSW 00:40:50 10° SE visible
9 Feb - 02:24:19 10° WSW 02:28:00 15° SSW 02:31:37 10° S daylight
9 Feb - 13:59:36 10° SSW 14:06:02 30° SSE 14:12:39 10° E visible
9 Feb - 15:52:27 10° WSW 16:00:13 87° SSE 16:08:08 10° ENE visible
9 Feb - 17:47:35 10° W 17:55:04 46° NNW 18:02:28 10° ENE night (unlit)
9 Feb - 19:43:27 10° WNW 19:50:29 35° N 19:57:15 10° ENE night (unlit)
9 Feb - 21:38:27 10° WNW 21:45:47 48° NNE 21:52:42 10° E visible
9 Feb - 23:32:57 10° WNW 23:40:19 76° SSW 23:47:13 10° ESE visible
10 Feb - 01:28:54 10° W 01:34:10 23° SSW 01:39:14 10° SSE daylight
10 Feb - 13:06:38 10° SSW 13:12:03 22° SSE 13:17:37 10° E visible
10 Feb - 14:58:33 10° SW 15:06:06 69° SSE 15:13:56 10° ENE visible
10 Feb - 16:53:09 10° W 17:00:45 54° NNW 17:08:23 10° ENE visible
10 Feb - 18:48:58 10° WNW 18:56:04 36° N 19:03:02 10° ENE night (unlit)
10 Feb - 20:44:14 10° WNW 20:51:31 42° N 20:58:28 10° E visible
10 Feb - 22:38:45 10° WNW 22:46:19 84° NNE 22:53:25 10° ESE visible
11 Feb - 00:34:02 10° W 00:40:20 32° SSW 00:46:18 10° SSE visible
11 Feb - 12:14:20 10° S 12:18:04 15° SSE 12:21:53 10° ESE daylight
11 Feb - 14:04:52 10° SW 14:12:04 52° SSE 14:19:35 10° ENE visible
11 Feb - 15:58:52 10° W 16:06:30 64° NNW 16:14:19 10° ENE visible
11 Feb - 17:54:29 10° WNW 18:01:41 38° N 18:08:49 10° ENE night (unlit)
11 Feb - 19:49:58 10° WNW 19:57:10 38° N 20:04:08 10° ENE night (unlit)
11 Feb - 21:44:34 10° WNW 21:52:14 68° NNE 21:59:26 10° ESE visible
11 Feb - 23:39:27 10° W 23:46:27 45° SSW 23:53:03 10° SE visible
12 Feb - 01:38:18 10° SW 01:40:18 11° SSW 01:42:15 10° SSW daylight
12 Feb - 13:11:25 10° SW 13:18:05 38° SSE 13:25:04 10° E visible
12 Feb - 15:04:43 10° WSW 15:12:18 79° NNW 15:20:11 10° ENE visible
12 Feb - 17:00:01 10° W 17:07:17 42° N 17:14:38 10° ENE visible
12 Feb - 18:55:40 10° WNW 19:02:48 36° N 19:09:48 10° ENE night (unlit)
12 Feb - 20:50:25 10° WNW 20:58:03 56° NNE 21:05:19 10° E visible
12 Feb - 22:45:03 10° WNW 22:52:31 62° SSW 22:59:33 10° SE visible
13 Feb - 00:41:49 10° WSW 00:46:23 18° SSW 00:50:49 10° S visible
13 Feb - 12:18:16 10° SSW 12:24:08 27° SSE 12:30:16 10° E daylight
13 Feb - 14:10:46 10° WSW 14:18:11 83° SSE 14:26:00 10° ENE visible
13 Feb - 16:05:36 10° W 16:12:57 47° NNW 16:20:29 10° ENE visible
13 Feb - 18:01:18 10° WNW 18:08:22 36° N 18:15:26 10° ENE night (unlit)
13 Feb - 19:56:16 10° WNW 20:03:47 48° NNE 20:11:04 10° E night (unlit)
13 Feb - 21:50:45 10° WNW 21:58:30 81° SSW 22:05:49 10° ESE visible
13 Feb - 23:46:34 10° W 23:52:30 26° SSW 23:58:11 10° SSE visible
14 Feb - 11:25:33 10° S 11:30:14 19° SSE 11:35:04 10° ESE daylight
14 Feb - 13:17:00 10° SW 13:24:09 64° SSE 13:31:44 10° ENE visible
14 Feb - 15:11:19 10° W 15:18:40 55° NNW 15:26:20 10° ENE visible
14 Feb - 17:06:55 10° WNW 17:13:57 36° N 17:21:05 10° ENE visible
14 Feb - 19:02:05 10° WNW 19:09:27 42° N 19:16:42 10° E night (unlit)
14 Feb - 20:56:33 10° WNW 21:04:24 81° NNE 21:11:54 10° ESE visible
14 Feb - 22:51:45 10° W 22:58:35 36° SSW 23:05:05 10° SSE visible
15 Feb - 10:33:48 10° SSE 10:36:19 12° SSE 10:38:53 10° SE daylight
15 Feb - 12:23:27 10° SW 12:30:11 47° SSE 12:37:20 10° ENE daylight
15 Feb - 14:17:09 10° WSW 14:24:28 67° NNW 14:32:11 10° ENE visible
15 Feb - 16:12:31 10° WNW 16:19:33 38° N 16:26:47 10° ENE visible
15 Feb - 18:07:53 10° WNW 18:15:05 38° N 18:22:15 10° ENE night (unlit)
15 Feb - 20:02:25 10° WNW 20:10:14 66° NNE 20:17:48 10° ESE night (unlit)
15 Feb - 21:57:12 10° WNW 22:04:37 50° SSW 22:11:42 10° SE visible
15 Feb - 23:55:08 10° WSW 23:58:35 14° SSW 00:01:57 10° S visible
16 Feb - 11:30:09 10° SSW 11:36:17 34° SSE 11:42:45 10° E daylight
16 Feb - 13:23:08 10° WSW 13:30:20 83° NNW 13:38:01 10° ENE visible
16 Feb - 15:18:10 10° W 15:25:12 42° N 15:32:31 10° ENE visible
16 Feb - 17:13:38 10° WNW 17:20:40 36° N 17:27:48 10° ENE night (unlit)
16 Feb - 19:08:18 10° WNW 19:15:59 54° NNE 19:23:33 10° E night (unlit)
16 Feb - 21:02:49 10° WNW 21:10:36 67° SSW 21:18:03 10° SE visible
16 Feb - 22:59:16 10° WSW 23:04:37 21° SSW 23:09:48 10° SSE visible
